Weather History for Worland, WY

Change the Weather History Date:

Wednesday, April 17, 2013

  Actual Average Record
Temperature  
Mean Temperature 29 °F 46 °F  
Max Temperature 36 °F 60 °F 84 °F (1987)
Min Temperature 21 °F 31 °F 18 °F (1982)
Degree Days  
Heating Degree Days 36 19  
Month to date heating degree days 432 361  
Since 1 July heating degree days 6887 7247  
Cooling Degree Days 0 0  
Month to date cooling degree days 0 0  
Year to date cooling degree days 0 0  
Moisture  
Dew Point 15 °F    
Average Humidity 58    
Maximum Humidity 84    
Minimum Humidity 32    
Precipitation  
Precipitation T in 0.03 in 0.45 in (1977)
Month to date precipitation 0.33 0.37  
Year to date precipitation 0.92 1.25  
Sea Level Pressure  
Sea Level Pressure 30.24 in    
Wind  
Wind Speed 10 mph (NNW)    
Max Wind Speed 22 mph    
Max Gust Speed 26 mph    
Visibility 7 miles    
Events Snow    
T = Trace of Precipitation, MM = Missing Value Source: NWS Daily Summary

Daily Weather History Graph

Daily Weather History Graph

Search for Another Location

Airport:

Trip Planner

Search our weather history database for the weather conditions in past years. The results will help you decide how hot, cold, wet, or windy it might be!

Date:

Astronomy

Apr. 17, 2013 Rise Set
Actual Time 6:24 AM MDT 7:58 PM MDT
Civil Twilight 5:54 AM MDT 8:28 PM MDT
Nautical Twilight 5:17 AM MDT 9:05 PM MDT
Astronomical Twilight 4:38 AM MDT 9:45 PM MDT
Moon 11:37 AM MDT (4/17) 1:42 AM MDT (4/17)
Length of Visible Light 14h 34m
Length of Day
13h 33m
Waxing Crescent, 43% of the Moon is Illuminated
Apr 17
Waxing Crescent
Apr 18
First Quarter
Apr 25
Full
May 2
Last Quarter
May 9
New

Hourly Weather History & Observations

Time (MDT) Temp. Windchill Dew Point Humidity Pressure Visibility Wind Dir Wind Speed Gust Speed Precip Events Conditions
12:53 AM 25.0 °F 17.1 °F 15.1 °F 66% 30.29 in 10.0 mi NW 6.9 mph - N/A   Scattered Clouds
1:53 AM 24.1 °F 18.2 °F 16.0 °F 71% 30.29 in 10.0 mi WNW 4.6 mph - N/A   Mostly Cloudy
2:53 AM 24.1 °F 16.0 °F 16.0 °F 71% 30.28 in 10.0 mi WNW 6.9 mph - N/A   Overcast
3:53 AM 23.0 °F 14.7 °F 15.1 °F 72% 30.27 in 10.0 mi WNW 6.9 mph - N/A   Overcast
4:53 AM 23.0 °F 14.7 °F 15.1 °F 72% 30.27 in 10.0 mi WNW 6.9 mph - N/A   Overcast
5:53 AM 23.0 °F 14.7 °F 16.0 °F 74% 30.27 in 4.0 mi NNW 6.9 mph - 0.00 in Snow Light Snow
6:30 AM 21.2 °F 11.7 °F 17.6 °F 86% 30.16 in 2.5 mi NW 8.1 mph - 0.00 in Snow Light Snow
6:50 AM 21.2 °F 12.6 °F 17.6 °F 86% 30.16 in 1.5 mi NNW 6.9 mph - 0.00 in Snow Light Snow
6:53 AM 21.0 °F 12.4 °F 18.0 °F 88% 30.29 in 1.2 mi NW 6.9 mph - 0.00 in Snow Light Snow
7:07 AM 21.2 °F 12.6 °F 19.4 °F 93% 30.16 in 0.8 mi NW 6.9 mph - 0.00 in Snow Light Snow
7:16 AM 21.2 °F 12.6 °F 17.6 °F 86% 30.16 in 0.8 mi NW 6.9 mph - 0.00 in Snow Light Snow
7:45 AM 21.2 °F 10.9 °F 17.6 °F 86% 30.17 in 1.5 mi North 9.2 mph - 0.00 in Snow Light Snow
8:01 AM 21.2 °F 12.6 °F 17.6 °F 86% 30.17 in 3.0 mi NNW 6.9 mph - 0.00 in Snow Light Snow
8:33 AM 23.0 °F 11.7 °F 15.8 °F 74% 30.17 in 2.5 mi NNW 11.5 mph - 0.00 in Snow Light Snow
8:43 AM 23.0 °F 11.7 °F 15.8 °F 74% 30.17 in 4.0 mi NNW 11.5 mph - 0.00 in Snow Light Snow
8:53 AM 23.0 °F 13.9 °F 17.1 °F 78% 30.30 in 3.0 mi NNW 8.1 mph - 0.00 in Snow Light Snow
9:05 AM 23.0 °F 11.7 °F 17.6 °F 80% 30.17 in 2.5 mi NNW 11.5 mph - 0.00 in Snow Light Snow
9:18 AM 23.0 °F 12.4 °F 17.6 °F 80% 30.17 in 4.0 mi NNW 10.4 mph - 0.00 in Snow Light Snow
9:53 AM 25.0 °F 15.5 °F 16.0 °F 69% 30.29 in 10.0 mi North 9.2 mph - 0.00 in   Overcast
10:13 AM 26.6 °F 16.2 °F 15.8 °F 64% 30.16 in 10.0 mi North 11.5 mph - N/A   Overcast
10:53 AM 28.9 °F 20.4 °F 17.1 °F 61% 30.27 in 10.0 mi NE 9.2 mph 19.6 mph N/A   Overcast
12:53 PM 32.0 °F 23.0 °F 15.1 °F 50% 30.24 in 10.0 mi North 11.5 mph - N/A   Overcast
1:53 PM 34.0 °F 26.6 °F 12.9 °F 42% 30.24 in 10.0 mi NE 9.2 mph - N/A   Overcast
2:53 PM 35.1 °F 26.4 °F 12.9 °F 40% 30.23 in 10.0 mi NNW 12.7 mph 21.9 mph N/A   Overcast
3:53 PM 35.1 °F 27.4 °F 10.9 °F 37% 30.24 in 10.0 mi NW 10.4 mph - N/A   Overcast
4:53 PM 35.1 °F 25.5 °F 10.0 °F 35% 30.25 in 10.0 mi NNW 15.0 mph - N/A   Overcast
5:53 PM 34.0 °F 23.8 °F 9.0 °F 35% 30.27 in 10.0 mi NW 16.1 mph - N/A   Mostly Cloudy
6:53 PM 35.1 °F 24.8 °F 9.0 °F 34% 30.28 in 10.0 mi NNW 17.3 mph - N/A   Overcast
7:53 PM 30.9 °F 19.8 °F 9.0 °F 40% 30.30 in 10.0 mi NW 16.1 mph - N/A   Scattered Clouds
8:53 PM 28.9 °F 18.2 °F 10.9 °F 47% 30.31 in 10.0 mi NW 13.8 mph - N/A   Partly Cloudy
9:53 PM 27.0 °F 17.3 °F 12.9 °F 56% 30.32 in 10.0 mi NW 10.4 mph - N/A   Clear
10:53 PM 26.1 °F 14.5 °F 12.9 °F 58% 30.32 in 10.0 mi NW 13.8 mph - N/A   Clear
11:53 PM 24.1 °F 13.1 °F 14.0 °F 65% 30.20 in 10.0 mi NW 11.5 mph - N/A   Clear